This is the latest recevied weather packets stored in our database for station/object 9M2SAR-10. If no packets are shown the sender has not sent any weather packets the latest 10 day(s).
| Time | Temp. | Humidity | Pressure | Rain* | Wind** | Luminosity | Snow |
|---|---|---|---|---|---|---|---|
| 1777527968 | 36.11° C | 100% | 1009.3 hPa | - | - | - | - |
| 1777527068 | 35.56° C | 100% | 1009.5 hPa | - | - | - | - |
| 1777526168 | 36.11° C | 100% | 1009.7 hPa | - | - | - | - |
| 1777525268 | 35.56° C | 100% | 1009.8 hPa | - | - | - | - |
| 1777524368 | 36.11° C | 100% | 1010 hPa | - | - | - | - |
| 1777523468 | 35° C | 100% | 1010.3 hPa | - | - | - | - |
| 1777522568 | 34.44° C | 100% | 1010.3 hPa | - | - | - | - |
| 1777521668 | 34.44° C | 100% | 1010.5 hPa | - | - | - | - |
| 1777520768 | 34.44° C | 100% | 1010.6 hPa | - | - | - | - |
| 1777519867 | 33.33° C | 100% | 1010.6 hPa | - | - | - | - |
| 1777518967 | 32.78° C | 100% | 1010.6 hPa | - | - | - | - |
| 1777518067 | 32.78° C | 100% | 1010.7 hPa | - | - | - | - |
| 1777517167 | 32.78° C | 100% | 1010.8 hPa | - | - | - | - |
| 1777516267 | 32.22° C | 100% | 1010.9 hPa | - | - | - | - |
| 1777515367 | 31.67° C | 100% | 1010.9 hPa | - | - | - | - |
| 1777514467 | 30.56° C | 100% | 1011.1 hPa | - | - | - | - |
| 1777513567 | 30.56° C | 100% | 1010.9 hPa | - | - | - | - |
| 1777511767 | 29.44° C | 100% | 1010.7 hPa | - | - | - | - |
| 1777510867 | 28.89° C | 100% | 1010.6 hPa | - | - | - | - |
| 1777509967 | 27.78° C | 100% | 1010.4 hPa | - | - | - | - |
| 1777509067 | 27.78° C | 100% | 1010.1 hPa | - | - | - | - |
| 1777497366 | 26.67° C | 100% | 1008.2 hPa | - | - | - | - |
| 1777487465 | 27.22° C | 100% | 1009.4 hPa | - | - | - | - |
| 1777486565 | 27.78° C | 100% | 1009.6 hPa | - | - | - | - |
| 1777485665 | 27.78° C | 100% | 1009.6 hPa | - | - | - | - |
* Rain since midnight (hover to see other rain measurements)
** Current wind speed in m/s (hover to see current wind gust speed)